507  
NZUS99 KTBW 230017  
RWRTPA  
FLORIDA REGIONAL WEATHER ROUNDUP  
NATIONAL WEATHER SERVICE TAMPA BAY RUSKIN FL  
800 PM EDT TUE AUG 22 2017  
 
NOTE: "FAIR" INDICATES FEW OR NO CLOUDS BELOW 12,000 FEET WITH NO  
SIGNIFICANT WEATHER AND/OR S TO VISIBILITY
.  
 
 
STATION/POSITION
 
 
 
FLZ042-048>051-055-056-060-061-230100-  
EXTRA STATIONS  
 
CITY SKY/WX TMP DP RH WIND PRES REMARKS
 
EVERGLADES CTY NOT AVBL  
CRYSTAL RIVER FAIR 88 68 51 NE3 29.99S HX 91  
SEBRING FAIR 86 74 67 NE7 29.98R HX 93  
EGLIN AFB MOCLDY 82 76 80 SW3 30.00F  
CANAVERAL PTCLDY 83 77 81 NE7 29.99F HX 92  
 

 
FLZ001>010-012>015-230100-  
PANHANDLE FLORIDA  
 
CITY SKY/WX TMP DP RH WIND PRES REMARKS
 
PENSACOLA CLOUDY 84 75 74 CALM 30.01F HX 92  
PENSACOLA NAS CLOUDY 83 76 79 CALM 30.00F HX 91  
MILTON NAS CLOUDY 81 76 84 W3 30.02  
CRESTVIEW MOCLDY 82 75 79 SW3 30.02F  
VALPARAISO MOCLDY 84 75 74 W2 30.00F HX 92  
MARY ESTHER CLEAR 83 72 67 CALM 29.99  
PANAMA CITY FAIR 85 75 72 SW5 29.99S HX 93  
TYNDALL AFB PTCLDY 85 76 74 S3 30.00F HX 94  
APALACHICOLA CLEAR 84 79 85 E3 30.00F HX 96  
 
STATION/POSITION
 
 
29.2N 88.2W  
28.8N 86.0W  
28.5N 84.5W  
 

 
FLZ011-016>039-230100-  
NORTH FLORIDA  
 
CITY SKY/WX TMP DP RH WIND PRES REMARKS
 
MARIANNA PTCLDY 83 74 74 S7 29.99F  
TALLAHASSEE MOCLDY 85 75 72 SW3 30.00F HX 93  
PERRY PTCLDY 83 79 88 CALM 30.02S HX 94  
CROSS CITY PTCLDY 84 77 78 W7 30.05S HX 93  
GAINESVILLE CLEAR 84 72 67 SE3 30.02F  
MAYPORT NAS PTCLDY 83 76 79 SE8 30.01S HX 91  
JACKSONVILLE PTCLDY 85 73 67 E7 30.00S HX 91  
JAX NAS PTCLDY 86 73 65 E14 30.01S HX 93  
JAX CRAIG CLEAR 83 73 72 SE8 30.01S  
ST AUGUSTINE CLEAR 82 75 79 SE7 30.03S  
 
STATION/POSITION
 
 
KEATON BEACH  
31.4N 80.9W  
ST AUGUSTINE  
 

 
FLZ040-043>046-052-053-057-058-063-230100-  
CENTRAL FLORIDA  
 
CITY SKY/WX TMP DP RH WIND PRES REMARKS
 
OCALA CLEAR 86 72 62 CALM 30.00F HX 92  
LEESBURG CLEAR 87 72 60 E8 30.01S HX 93  
SANFORD CLEAR 84 74 71 E8 30.01S HX 91  
ORLANDO EXEC CLEAR 85 75 72 E13 30.01S HX 93  
ORLANDO INTL PTCLDY 84 75 74 NE15 30.00S HX 92  
KISSIMMEE CLEAR 87 74 64 E12 30.01S HX 95  
WINTER HAVEN CLEAR 87 71 58 E10 30.00R HX 93  
LAKELAND PTCLDY 90 70 51 NE15 29.98S HX 95  
BARTOW FAIR 86 72 62 NE7 29.99S HX 92  
 

 
FLZ041-047-054-059-064-230100-  
EAST CENTRAL FLORIDA  
 
CITY SKY/WX TMP DP RH WIND PRES REMARKS
 
DAYTONA BEACH PTCLDY 83 77 82 E8 30.01F HX 92  
JFK SPACE CTR PTCLDY 82 80 93 E6 30.00S HX 94  
TITUSVILLE PTCLDY 88 79 74 NE17 30.01S HX 102  
PATRICK AFB CLEAR 84 77 79 E10 29.99S HX 93  
MELBOURNE PTCLDY 85 76 74 E13 29.99S HX 94  
VERO BEACH CLEAR 83 77 82 E8 29.98F HX 92  
FT PIERCE PTCLDY 83 77 82 E6 29.98S HX 92  
STUART PTCLDY 84 77 79 E6 29.99S HX 94  
 
STATION/POSITION
 
 
28.9N 78.5W  
 

 
FLZ042-048>051-055-056-060-061-230100-  
WEST CENTRAL FLORIDA  
 
CITY SKY/WX TMP DP RH WIND PRES REMARKS
 
BROOKSVILLE CLEAR 88 71 57 NE3 29.99S HX 94  
TAMPA PTCLDY 92 67 43 NE7 29.97F HX 95  
MACDILL AFB PTCLDY 88 70 54 NE7 29.96F HX 92  
ST PETERSBURG PTCLDY 91 70 49 NE9 29.96F HX 96  
ST PET-WHITTED PTCLDY 91 74 57 N5 29.95S HX 100  
SARASOTA CLEAR 89 71 55 NE7 29.94F HX 95  
 
STATION/POSITION
 
 
CEDAR KEY  
28.5N 84.5W  
VENICE  
 

 
FLZ062-065-066-069-070-075>078-230100-  
SOUTHWEST FLORIDA AND KEYS  
 
CITY SKY/WX TMP DP RH WIND PRES REMARKS
 
PUNTA GORDA PTCLDY 88 73 61 E10 29.97R HX 95  
FT MYERS PTCLDY 89 77 67 NE12 29.94R HX 101  
SOUTHWEST INTL MOCLDY 89 74 60 E14 29.95R HX 98  
NAPLES MOCLDY 84 76 76 NE6 29.94R HX 93  
MARATHON MOCLDY 87 78 74 SE7 29.95S HX 100  
KEY WEST NAS CLOUDY 84 81 90 SW7 29.95R HX 99  
KEY WEST INTL CLEAR 86 79 79 SW8 29.96R HX 99  
 
STATION/POSITION
 
 
VENICE  
SAND KEY  
MOLASSES REEF  
 

 
FLZ067-068-071>074-230100-  
SOUTHEAST FLORIDA  
 
CITY SKY/WX TMP DP RH WIND PRES REMARKS
 
W PALM BEACH PTCLDY 85 75 72 VRB7 29.98S HX 93  
POMPANO BEACH PTCLDY 86 76 71 E9 29.96F HX 96  
FT LAUDER-EXEC PTCLDY 84 77 79 E12 29.96S HX 94  
FT LAUDERDALE MOCLDY 85 76 74 E14 29.95S HX 94  
PEMBROKE PINES CLOUDY 86 75 69 E10 29.97S HX 95  
OPA LOCKA PTCLDY 86 78 77 E12 29.96S HX 98  
MIAMI MOCLDY 87 75 67 E14 29.96S HX 96  
WEST KENDALL PTCLDY 85 77 77 E13 29.95S HX 95  
HOMESTEAD MOCLDY 85 79 83 E7 29.95S HX 97  
 
STATION/POSITION
 
 
LAKE WORTH  
FOWEY ROCKS  
SETTLEMENT POINT  
 

 
 
 
CLICK HERE TO GO TO PREVIOUS BULLETINS.

The Nexlab FL Page Main Text Page